Regional Weather Roundup
Issued by NWS Northern Indiana

Home | Current Version | Previous Version | Text Only | Print | Product List | Glossary On
Versions: 1 2 3 4 5 6 7 8 9 10 11 12 13 14 15 16 17 18 19 20 21 22 23 24 25 26 27 28 29 30 31 32 33 34 35 36 37 38 39 40 41 42 43 44 45 46 47 48 49 50
693
ASUS43 KIWX 140210
RWRIWX

KIWX WEATHER ROUNDUP
NATIONAL WEATHER SERVICE NORTHERN INDIANA
900 PM EST SAT FEB 13 2016

NOTE: "FAIR" INDICATES FEW OR NO CLOUDS BELOW 12,000 FEET WITH NO
SIGNIFICANT WEATHER AND/OR OBSTRUCTIONS TO VISIBILITY.

* THESE STATIONS ARE NOT UNDER NWS QUALITY CONTROL. THEY ALSO MAY NOT
  REPORT WEATHER SUCH AS PRECIPITATION OR FOG.

INZ001>027-140300-
NORTHERN INDIANA

CITY           SKY/WX    TMP DP  RH WIND       PRES   REMARKS
GARY*          PTCLDY    14   0  52 CALM      30.50F
VALPARAISO     CLOUDY     8  -1  66 SE3       30.49F
MICHIGAN CITY* CLOUDY     3   0  85 CALM      30.50F
LAPORTE*       CLOUDY     1  -3  83 CALM      30.50F
KNOX*          CLOUDY     5   0  78 SE3       30.50F
SOUTH BEND     CLOUDY     8   2  76 CALM      30.49F
GOSHEN         CLOUDY    12   5  73 W7        30.48S WCI   1
MONTICELLO*    CLOUDY    13  -3  50 E3        30.50S
LOGANSPORT*    CLOUDY    10  -2  56 E3        30.51F
ROCHESTER*     CLOUDY     5  -4  66 CALM      30.50F
WARSAW*        CLOUDY     7   0  72 CALM      30.49S
ANGOLA*        CLOUDY    10   3  72 W5        30.45R WCI   2
FORT WAYNE     PTCLDY     7   0  73 W6        30.50S WCI  -3
HUNTINGTON*    CLOUDY     7  -3  63 CALM      30.50F
PERU/GRISSOM   CLOUDY     7   0  73 E3        30.47F
MARION*        PTCLDY     8  -9  47 CALM      30.51S

$$
INZ028>050-140300-
CENTRAL INDIANA

CITY           SKY/WX    TMP DP  RH WIND       PRES   REMARKS
LAFAYETTE      CLOUDY    13   2  61 CALM      30.51F
KOKOMO*        CLOUDY     7  -2  66 E5        30.49F WCI  -2
MUNCIE*        PTCLDY     6  -3  66 CALM      30.49S
INDIANAPOLIS   CLOUDY    13   0  56 W6        30.49S WCI   4

$$
MIZ043>046-050>051-056>058-064>065-071>073-077>080-140300-
SOUTHWEST LOWER MICHIGAN

CITY           SKY/WX    TMP DP  RH WIND       PRES   REMARKS
BATTLE CREEK   CLOUDY    12   5  73 NW6       30.45S WCI   3
BENTON HARBOR  CLOUDY    16   4  59 CALM      30.49S
COLDWATER*     CLOUDY    12   6  76 W7        30.45S WCI   2
HILLSDALE*     CLOUDY    12   2  66 NW10      30.42S WCI  -2
HOLLAND        CLOUDY    13   5  70 NE3       30.48F
GRAND RAPIDS   CLOUDY    13   1  59 N8        30.46F WCI   2
KALAMAZOO      CLOUDY    12   5  73 W6        30.46S WCI   3
STURGIS*       CLOUDY     5   2  85 CALM      30.46R
THREE RIVERS*  CLOUDY    11   7  81 W3        30.48S

$$
OHZ001>008-015>018-024>025-140300-
NORTHWEST OHIO

CITY           SKY/WX    TMP DP  RH WIND       PRES   REMARKS
DEFIANCE       MOCLDY    13   3  64 W3        30.49S
FINDLAY        CLOUDY    13   6  74 W9        30.45F WCI   1
TOLEDO EXPRESS CLOUDY    14   7  73 W5        30.46F WCI   6
TOLEDO METCALF CLOUDY    15   5  64 NW6       30.48R WCI   6
LIMA           MOCLDY    11   4  73 W8        30.46S WCI  -1

$$
AND FOR LAKE MICHIGAN COASTAL AND OPEN LAKE BUOY OBSERVATIONS

STATION/POSITION TEMP    WIND        PRES    VSBY  WAVE
                 AIR SEA DIR/SP/G                  HT/PER
                 (F)     (DEG/KT/KT) (MB)    (MI)  (FT/S)
CALUMET HARBOR    15     280/  2/  3 1032.2S
MICHIGAN CITY     15     280/  6/  7   N/A
BURNS HARBOR      14     170/  2/  3 1033.5S
SAINT JOSEPH      16     320/  6/  9 1032.8F

$$
&&




USA.gov is the U.S. government's official web portal to all federal, state and local government web resources and services.